MST,Max TemperatureF,Mean TemperatureF,Min TemperatureF,Max Dew PointF,MeanDew PointF,Min DewpointF,Max Humidity, Mean Humidity, Min Humidity, Max Sea Level PressureIn, Mean Sea Level PressureIn, Min Sea Level PressureIn, Max VisibilityMiles, Mean VisibilityMiles, Min VisibilityMiles, Max Wind SpeedMPH, Mean Wind SpeedMPH, Max Gust SpeedMPH,PrecipitationIn, CloudCover, Events, WindDirDegrees
2013-12-1,59,40,21,31,25,17,88,61,33,30.18,30.02,29.79,10,10,10,21,6,28,0.00,2,,281
2013-12-2,64,49,34,30,27,24,75,49,23,29.77,29.65,29.50,10,10,10,23,10,32,0.00,1,,273
2013-12-3,56,37,18,31,22,11,82,59,35,29.84,29.65,29.49,10,9,4,33,15,41,T,5,Rain,3
2013-12-4,18,11,4,13,3,-7,80,67,53,30.32,30.00,29.76,10,9,4,30,22,38,T,7,Snow,336
2013-12-5,16,7,-2,-4,-6,-9,69,55,40,30.48,30.39,30.32,10,10,10,21,8,25,0.00,3,,4
2013-12-6,14,6,-3,-3,-6,-9,76,64,52,30.67,30.58,30.46,10,10,6,10,4,13,0.00,3,,102
2013-12-7,9,3,-4,2,-4,-10,87,71,55,30.63,30.42,30.07,10,9,4,23,15,28,T,7,Snow,139
2013-12-8,14,2,-10,5,1,-14,88,78,67,30.35,30.03,29.86,10,5,0,18,8,23,0.02,6,Snow,29
2013-12-9,22,8,-6,8,0,-12,75,61,47,30.41,30.31,30.23,10,10,10,21,10,28,0.00,0,,256
2013-12-10,37,22,6,20,10,-1,77,59,40,30.41,30.23,30.08,10,10,10,18,9,23,0.00,2,,295
2013-12-11,36,21,6,19,12,5,92,72,52,30.62,30.50,30.42,10,10,10,20,9,24,0.00,1,,237
2013-12-12,51,30,8,20,14,4,84,56,27,30.44,30.26,30.00,10,10,10,9,3,16,0.00,0,,252
2013-12-13,50,31,12,22,16,8,84,55,26,30.16,29.98,29.85,10,10,10,22,11,26,0.00,1,,335
2013-12-14,48,36,23,26,20,16,92,62,31,30.29,30.23,30.15,10,10,10,25,11,31,0.00,2,,302
2013-12-15,57,43,28,22,19,16,59,42,24,30.18,30.10,30.03,10,10,10,25,12,33,0.00,1,,288
2013-12-16,62,47,32,21,18,16,54,37,19,30.23,30.12,30.03,10,10,10,18,11,22,0.00,0,,300
2013-12-17,55,39,22,24,19,16,74,48,22,30.39,30.23,30.01,10,10,10,15,8,21,0.00,0,,235
2013-12-18,69,49,28,22,18,16,63,38,12,29.98,29.82,29.72,10,9,2,13,4,16,0.00,0,,256
2013-12-19,41,27,13,26,19,3,92,73,54,30.04,29.83,29.69,10,10,6,28,14,33,T,3,,26
2013-12-20,24,17,9,7,4,1,76,62,47,30.09,29.97,29.84,10,10,10,25,9,32,0.00,2,,292
2013-12-21,39,23,7,18,11,3,88,64,40,29.98,29.83,29.73,10,10,5,15,5,18,0.00,2,,3
2013-12-22,36,26,15,22,16,11,84,62,40,30.41,30.17,29.97,10,7,1,18,9,24,0.02,6,Snow,10
2013-12-23,24,17,10,17,10,5,92,83,73,30.57,30.41,30.25,10,9,2,18,8,24,T,6,Snow,130
2013-12-24,45,28,10,34,23,7,92,75,58,30.37,30.19,30.01,10,10,10,32,10,40,0.00,2,,308
2013-12-25,43,32,20,21,17,14,88,62,36,30.46,30.38,30.27,10,10,10,23,11,29,0.00,0,,282
2013-12-26,53,36,18,21,17,13,73,50,26,30.32,30.28,30.21,10,10,10,23,11,30,0.00,0,,290
2013-12-27,60,40,20,24,20,16,74,48,22,30.32,30.22,30.04,10,10,9,15,6,21,0.00,0,,261
2013-12-28,59,37,14,26,17,4,81,51,21,30.32,30.05,29.83,10,10,10,35,15,43,0.00,2,,342
2013-12-29,28,18,7,14,5,0,76,57,38,30.49,30.32,30.09,,,,28,10,32,T,1,,291
2013-12-30,48,35,22,23,18,15,77,56,34,30.27,30.17,30.04,10,10,2,32,13,41,0.00,1,,285
2013-12-31,57,38,19,25,19,14,77,51,24,30.16,30.04,29.96,10,10,10,25,9,33,0.00,1,,242